星链-31074 (STARLINK-31074 )

导读

STARLINK-31074是美国于北京时间2023年12月19日8点发射的星链卫星,归属SpaceX星链互联网卫星项目,该项目旨在通过近地轨道卫星群,为全球用户提供高速互联网服务,该卫星入轨后会融入已在轨的庞大星链卫星网络,进一步拓展星链系统覆盖能力。

Basic Information
目录编号:
58601
目录名称:
STARLINK-31074
国际标识:
2023-200N
轨道中心:
EARTH
卫星名称:
星链-31074
卫星全名:
星链-31074 (STARLINK-31074 )
卫星状态:
在轨 (已飞行997 天)
发射日期:
2023-12-19 UTC
国别 :
美国 (US)
星等 :
--
This satellite is enrolled in the Space Conjunction Data Service (SCDS) and the current flight risk assessment level is: No High Risk
Orbit Information
数据来源 国际轨道数据 AOE轨道数据
星历时间 2026-09-11T14:11:12+0800
12小时前
查看轨道信息
2026-09-10T23:00:00+0800
1天前
查看轨道信息
半长轴 6861.198km 6861.206km
偏心率 0.0001478 0.000146
轨道倾角 43.003° 43.001°
近地点辐角 265.857° 268.290°
升交点赤经 200.642° 204.217°
平近点角 94.211° 207.852°
近地点 482.046km 482.067km
远地点 484.076km 484.071km
周期 94.267分钟 94.267分钟
每日圈数 15.275762 15.275734
Detailed Information
固有亮度:
5
最大亮度:
0.3
卫星平台:
Starlink v2.0 mini
覆盖范围:
全球
运营商:
太空探索技术公司
运营商所在国:
美国
制造商(研发单位):
太空探索技术公司
制造商所在国:
美国
使用方式:
暂无
Satellite Introduction
星链(Starlink)计划是由太空探索技术公司(SpaceX)提出的一个巨型低轨卫星互联网星座项目,计划在2019年至2024年间在太空搭建由约1.2万颗卫星组成的“星链”网络,其中1584颗将部署在地球上空550千米处的近地轨道,并从2020年开始工作。该卫星仍在工作。
2D Orbit Map
3D Orbit Map
Orbit Altitude Analysis Chart
Orbit Inclination Analysis Chart
Orbit Comprehensive Analysis Chart
View Comprehensive Chart
Miss Distance Evolution Trend with All Objects
Collision Probability Evolution Trend with All Objects